Regional Weather Roundup
Issued by NWS Huntsville, AL

Home | Current Version | Previous Version | Text Only | Print | Product List | Glossary On
Versions: 1 2 3 4 5 6 7 8 9 10 11 12 13 14 15 16 17 18 19 20 21 22 23 24 25 26 27 28 29 30 31 32 33 34 35 36 37 38 39 40 41 42 43 44 45 46 47 48 49 50
000
ASUS44 KHUN 301510
RWRHUN

WEATHER ROUNDUP FOR THE TENNESSEE VALLEY
NATIONAL WEATHER SERVICE HUNTSVILLE AL
1000 AM CDT TUE SEP 30 2014

ALZ001>004-301600-
NORTHWEST ALABAMA

CITY           SKY/WX    TMP DP  RH WIND       PRES   REMARKS
COURTLAND HCN    N/A     73 N/A N/A CALM        N/A
RUSSELLVILLE     N/A     75 N/A N/A MISG        N/A
SHOALS AIRPORT SUNNY     74  64  71 CALM      29.98F
SHOALS TVA RES   N/A     73 N/A N/A MISG        N/A
$$

ALZ005>007-016-301600-
NORTH CENTRAL ALABAMA

CITY           SKY/WX    TMP DP  RH WIND       PRES   REMARKS
CULLMAN AG STN   N/A     64 N/A N/A NE3         N/A
DECATUR AP     CLOUDY    66  65  96 SE5       29.99S FOG
HUNTSVILLE AP  CLOUDY    70  64  81 S3        29.99S FOG
HUN NWS/UAH      N/A     67  63  85 E2          N/A
MERIDIANVILLE  CLOUDY    66  61  82 CALM      30.00R HAZE
REDSTONE ARSN  CLOUDY    68  64  88 CALM      30.00S FOG
VINEMONT AP    CLOUDY    64  64  99 CALM      30.02R FOG
$$

ALZ008>010-301600-
NORTHEAST ALABAMA

CITY           SKY/WX    TMP DP  RH WIND       PRES   REMARKS
ALBERTVILLE    CLOUDY    68  68 100 CALM      30.00R
FORT PAYNE     CLOUDY    68  61  77 CALM      29.99S
SCOTTSBORO AP  CLOUDY    66  64  94 CALM      30.00S FOG
SCOTTSBORO HCN   N/A     66 N/A N/A MISG        N/A
VALLEY HEAD      N/A     66 N/A N/A MISG        N/A
$$

TNZ076-096-097-301600-
SOUTHEASTERN MIDDLE TENNESSEE

CITY           SKY/WX    TMP DP  RH WIND       PRES   REMARKS
FAYETTEVILLE   CLOUDY    66  64  94 CALM      29.99S
TULLAHOMA      SUNNY     73  64  73 S3        29.99F
WINCHESTER     SUNNY     73  64  73 CALM      29.99S
$$

...SURROUNDING SITES...

CITY           SKY/WX    TMP DP  RH WIND       PRES   REMARKS
ATLANTA        MOSUNNY   72  62  71 E7        29.98F
ANNISTON       CLOUDY    73  63  70 VRB3      29.98F
BIRMINGHAM     CLOUDY    70  63  78 VRB6      30.01R
CHATTANOOGA    PTSUNNY   70  64  81 CALM      29.99S
CORINTH        FAIR      77  64  65 VRB3      29.96S
DALTON         CLOUDY    63  63 100 CALM      29.99F
GADSDEN        CLOUDY    70  61  73 E6        29.99S
GOLDEN TRNGL   SUNNY     75  64  69 SE7       29.96S
HALEYVILLE     FAIR      75  66  73 CALM      30.01S
JACKSON TN     SUNNY     74  63  68 CALM      29.96S
LEWISBURG      FAIR      77  66  68 VRB5      29.96F
MEMPHIS        MOSUNNY   78  60  53 CALM      29.96S
MURFREESBORO   FAIR      75  60  59 CALM      29.96F
NASHVILLE      SUNNY     77  62  59 CALM      29.97S
OXFORD MS      FAIR      73  66  78 SE3       29.98R
ROME           CLOUDY    65  65 100 CALM      29.98F
SAVANNAH       SUNNY     75  66  73 CALM      29.96S
TUPELO         SUNNY     76  66  71 SW7       29.96S
TUSCALOOSA     SUNNY     76  64  66 NE5       29.97S
$$

...GULF COAST WEATHER...

CITY           SKY/WX    TMP DP  RH WIND       PRES   REMARKS
GULFPORT       SUNNY     79  71  76 VRB5      29.91R
PASCAGOULA     CLOUDY    76  70  82 NE9       29.92S
MOBILE         CLOUDY    70  70 100 NE8       29.94S FOG
GULF SHORES    CLOUDY    75  71  87 NE7       29.92R
PENSACOLA      PTSUNNY   76  69  79 E10       29.92R
DESTIN         CLOUDY    76  70  82 NE3       29.91S
PANAMA CITY    CLOUDY    75  74  96 NE10      29.90S
APPALACHICOLA  CLOUDY    79  72  79 NE8       29.88R
$$



USA.gov is the U.S. government's official web portal to all federal, state and local government web resources and services.